{"data":{"norad_id":60365,"intl_designator":"2024-138L","name":"STARLINK-32188","alt_names":[],"object_type":"PAYLOAD","status":"ACTIVE","operator":null,"country":"US","launch_date":"2024-08-04","launch_site_code":"AFWTR","launch_vehicle":null,"mission":null,"orbit_class":"UNKNOWN","rcs_meters":null,"size_class":null,"mass_kg":null,"dimensions":null,"purposes":["comms"],"wikipedia_slug":null,"has_3d_model":false,"image_url":null,"decayed_at":null,"tle_current":{"epoch":"2026-09-21T21:07:04.395936Z","epoch_age_seconds":66438,"freshness":"FRESH","line1":"1 60365U 24138L   26264.87991199  .00000242  00000+0  19574-4 0  9998","line2":"2 60365  53.1595 117.0130 0001243  88.5321 271.5823 15.31705284120681","mean_motion":15.31705284,"eccentricity":0.0001243,"inclination_deg":53.1595,"raan_deg":117.013,"arg_perigee_deg":88.5321,"mean_anomaly_deg":271.5823,"bstar":1.9574e-5,"rev_number":12068,"period_min":94.012863639112,"perigee_km":469.87293048926,"apogee_km":471.57555739451,"semimajor_km":6848.8612439419,"source":"CELESTRAK","updated_at":"2026-09-22T09:00:49.225804Z"}}}